Theta_e
360 361 364 363 364 363 364 364 364 365 365 366 366 366 366 366 365 366 367 366 366 365 365 365 365 364 364 364 363 364 365 364 365 364 363 364 365 365 364 364 363 363 363 362 361 361 361 362 363 363 363 363 364 365 365 365 366 364 363 366 365 365 365 365 365 365 363 359 358 355 354 355 357 358 358 357 357 358 357 356 358 358 358 354 355
358 361 364 367 363 364 363 364 365 365 365 366 366 366 366 366 366 366 366 366 366 366 366 365 364 364 364 365 365 365 365 365 364 364 365 364 361 362 363 363 362 362 362 361 360 357 358 360 361 362 362 362 363 363 364 364 364 365 363 363 364 364 364 364 364 364 363 360 358 357 356 355 358 358 358 358 358 358 357 358 358 361 357 355 354
361 361 363 365 363 363 364 364 365 366 365 365 365 366 366 366 366 367 366 366 366 366 366 366 366 366 365 365 365 365 364 364 364 365 365 364 362 362 361 360 362 363 361 361 358 356 356 358 358 358 358 361 361 362 362 362 362 364 364 363 363 364 364 363 363 363 362 361 359 357 356 357 357 358 359 359 359 358 358 359 360 360 361 357 354
359 361 362 365 363 364 365 364 364 365 365 365 366 366 367 366 366 366 366 366 365 365 365 365 365 365 366 366 365 365 365 364 364 364 364 364 364 363 361 361 362 362 360 359 358 357 356 356 358 358 358 357 358 359 359 361 361 361 363 362 363 362 364 364 362 360 362 361 360 357 357 357 358 358 358 358 359 360 360 360 360 358 357 355 355
359 361 363 364 365 365 364 364 365 365 365 365 365 366 365 366 366 365 366 366 366 365 365 365 366 365 364 366 366 365 364 365 365 365 365 364 363 363 361 358 360 361 359 358 358 356 356 356 356 356 358 358 357 358 358 360 360 360 361 362 362 363 363 362 356 357 361 360 359 356 360 358 361 359 359 359 360 360 360 359 358 358 357 354 354
358 360 360 362 363 367 364 364 365 365 365 365 365 365 365 365 365 365 365 364 365 365 366 365 364 365 364 363 363 364 363 364 364 364 364 363 363 361 358 356 358 358 360 358 357 358 356 356 356 357 358 357 358 358 359 359 360 359 359 360 360 361 362 357 356 355 360 360 360 360 360 359 359 360 358 360 360 360 360 359 359 358 356 354 354
359 359 360 362 362 366 365 365 365 366 366 365 365 365 365 365 365 365 365 365 365 364 364 365 364 364 363 364 363 363 364 363 364 362 359 360 361 359 357 358 358 357 359 358 357 357 355 357 357 357 357 358 358 358 359 360 360 360 359 359 359 360 361 358 354 354 360 359 362 363 359 359 360 361 358 360 361 360 360 359 359 358 357 356 356
358 359 361 361 362 366 365 366 366 366 366 365 365 365 365 365 365 365 365 365 365 364 364 364 364 364 363 363 363 363 363 364 363 360 359 359 359 360 359 359 358 358 356 358 358 357 358 358 357 357 357 357 357 357 359 359 360 360 360 359 360 361 360 360 359 358 362 364 364 363 362 360 359 362 359 360 360 361 360 360 359 359 357 356 356
357 358 360 360 363 365 366 366 365 365 365 365 365 365 365 365 365 365 365 365 365 364 364 364 364 363 363 363 363 362 363 362 363 360 360 361 361 362 361 360 359 357 357 355 355 356 359 359 357 358 357 357 357 358 359 359 359 360 359 359 360 360 360 359 359 360 363 364 367 367 365 361 360 362 360 360 360 360 360 361 360 358 357 357 356
358 360 360 361 363 368 366 366 365 365 365 364 365 364 364 364 365 365 364 364 364 364 363 363 363 364 363 363 363 363 362 359 364 362 362 361 360 362 360 360 360 356 356 353 352 357 360 359 358 358 357 358 358 358 358 358 360 359 358 359 359 358 359 360 358 360 367 367 368 369 365 361 362 362 360 359 360 360 361 359 360 359 358 356 357
359 360 361 362 365 367 366 365 365 364 364 363 364 365 363 364 365 365 364 364 364 364 364 364 364 363 364 363 362 362 363 363 363 363 363 362 362 361 362 361 360 359 358 355 355 355 355 360 358 358 358 357 358 358 358 358 359 358 354 358 359 357 359 360 362 365 368 364 368 368 364 361 363 360 358 359 359 359 360 360 359 358 357 357 358
358 360 361 363 369 366 365 364 364 363 362 364 363 364 364 364 364 364 365 364 363 363 364 364 364 364 364 364 364 363 363 363 364 363 364 363 362 362 361 361 361 358 358 358 356 357 359 359 359 358 358 359 359 358 358 359 359 358 355 356 358 357 359 360 360 363 366 366 367 368 366 365 366 360 358 359 359 359 360 360 360 358 357 358 358
358 358 360 364 367 367 365 365 365 365 363 363 364 364 365 364 364 364 364 364 363 364 364 364 364 364 365 365 365 363 362 363 363 363 363 362 362 362 361 360 361 360 361 360 361 359 359 358 358 358 358 359 358 358 359 358 358 357 355 357 358 358 359 360 362 358 363 362 367 366 368 368 366 359 359 360 360 360 360 360 360 359 358 358 358
356 357 360 362 363 367 365 365 364 364 363 365 365 365 365 364 364 365 364 364 364 363 364 364 364 364 364 364 364 364 363 363 362 362 362 362 362 362 362 362 361 360 361 359 360 359 358 357 357 359 359 358 358 358 358 358 358 358 355 358 357 356 357 357 360 364 364 363 366 367 364 367 367 359 360 361 361 361 360 359 360 359 359 359 358
355 356 360 363 363 364 365 364 364 364 364 364 364 365 365 365 364 364 364 364 365 364 363 364 364 364 364 364 363 364 362 362 362 361 361 361 361 361 361 362 361 361 361 361 361 360 358 356 356 357 358 358 358 358 358 357 358 357 356 354 354 356 355 362 364 363 362 361 366 368 364 362 362 361 361 360 360 360 360 360 360 360 359 359 359
355 356 359 360 363 364 363 365 364 364 364 364 364 365 365 365 365 364 364 365 365 364 364 364 363 363 363 363 363 363 363 362 362 362 361 361 360 360 361 361 361 361 361 360 359 358 358 357 357 357 356 358 358 358 358 357 357 357 356 356 355 354 356 358 360 361 362 363 365 364 359 360 362 362 362 361 360 361 360 359 359 359 359 359 359
355 358 357 360 362 360 359 364 363 363 364 364 364 365 365 365 365 364 364 365 365 364 364 363 363 363 362 363 364 363 363 363 363 362 362 362 362 361 361 361 361 361 360 361 358 358 357 356 355 354 357 358 357 358 357 357 357 354 355 357 356 357 358 359 361 363 360 361 363 359 356 362 363 362 361 361 359 359 359 359 359 359 359 360 359
356 358 359 359 361 360 360 360 364 366 366 365 364 365 365 365 365 364 364 364 364 363 363 362 362 362 363 363 364 364 363 364 363 362 362 362 362 362 361 361 361 361 360 357 355 356 355 355 356 357 355 357 357 357 357 357 357 357 355 356 357 356 357 355 357 360 361 362 363 363 359 360 361 361 361 361 360 360 359 358 359 359 359 360 360
355 357 358 361 362 361 358 360 365 365 366 366 367 369 365 365 364 364 364 364 363 363 363 362 363 362 363 364 364 363 363 363 363 362 362 362 362 361 362 361 361 360 359 358 358 356 355 352 356 356 357 357 358 357 356 357 356 357 356 354 355 357 358 357 359 357 361 363 362 362 359 362 362 361 361 361 361 360 359 358 358 359 359 359 360
357 358 358 360 362 360 360 359 363 364 366 365 366 368 368 365 365 365 364 364 361 362 362 363 362 363 363 363 364 364 364 366 363 365 364 363 363 365 363 362 363 363 361 361 360 359 358 357 356 357 357 356 357 357 357 356 357 356 356 356 357 355 358 359 358 358 360 359 360 359 359 363 362 362 362 361 361 360 360 359 358 358 359 359 360
354 355 358 359 362 360 360 358 361 363 362 365 365 367 366 366 366 365 361 361 362 362 363 362 362 363 364 364 363 366 367 369 368 368 365 371 364 364 363 363 363 363 362 363 362 362 361 359 358 360 358 356 357 357 357 357 357 356 355 355 357 357 359 358 356 359 360 357 361 359 363 362 363 362 361 362 361 360 359 359 358 359 360 360 361
351 354 358 358 359 359 361 359 360 360 363 362 362 365 368 366 367 365 365 365 364 364 365 365 364 368 361 366 369 366 366 369 368 361 369 366 369 362 363 364 363 362 363 363 363 362 362 360 360 360 360 359 359 363 362 358 357 357 357 357 357 361 358 357 359 358 358 359 358 363 362 363 363 363 362 361 361 360 360 359 358 359 359 360 361
350 352 355 355 358 359 360 357 358 361 359 362 359 364 365 366 366 367 365 363 366 367 367 367 368 368 368 367 367 368 367 371 372 368 368 363 363 365 364 364 362 361 363 363 363 362 361 362 360 360 360 359 364 360 357 359 363 357 358 360 360 360 359 357 359 358 357 357 359 360 360 362 362 363 362 361 360 360 359 359 360 359 359 359 361
349 351 353 356 359 358 358 358 360 361 360 360 361 362 363 366 364 364 363 365 367 367 368 368 368 367 364 366 364 365 364 371 363 366 369 371 370 366 365 364 366 366 366 366 365 364 363 364 361 362 361 361 359 362 361 359 357 360 359 359 359 359 358 358 359 360 356 356 357 356 358 361 362 362 362 361 361 360 360 359 359 360 360 360 360
349 351 354 354 356 357 357 359 361 360 360 361 361 360 362 360 360 362 363 360 363 364 364 365 366 366 366 365 364 363 363 366 366 368 367 367 366 367 368 368 369 372 369 371 370 371 367 365 362 360 364 361 358 359 361 362 358 358 359 360 360 362 362 361 359 358 362 359 356 355 357 360 361 362 362 362 360 360 359 359 360 359 360 359 360
351 350 352 354 354 355 356 357 359 359 360 360 357 360 362 359 360 360 360 362 361 360 362 363 363 364 364 363 363 362 362 364 366 367 367 367 365 366 366 368 368 370 371 369 367 370 369 365 364 363 366 364 364 361 359 361 357 357 358 362 362 362 361 360 361 360 359 363 361 357 356 360 361 361 362 361 361 361 360 360 360 359 360 360 360
350 351 352 353 354 355 357 357 357 359 359 362 362 361 359 364 361 360 361 361 361 361 359 360 363 365 364 363 360 359 359 359 362 365 364 365 363 362 361 365 367 366 370 369 368 368 367 364 364 367 366 365 365 362 361 361 364 360 358 359 362 362 362 361 360 362 359 359 362 360 359 359 360 360 361 361 362 361 361 360 359 358 358 359 360
351 349 350 351 354 353 357 356 357 358 361 361 363 358 360 361 362 363 362 362 362 359 357 358 362 363 365 364 362 358 355 356 359 359 360 360 359 360 361 359 361 363 369 371 368 365 364 367 367 368 367 367 365 364 359 361 361 360 358 357 359 361 362 361 361 360 358 357 361 359 358 358 358 361 361 361 361 361 361 361 359 359 359 359 360
348 347 350 349 351 352 356 355 356 358 358 358 357 360 360 361 361 360 361 364 362 358 359 364 360 361 362 365 363 354 352 352 352 352 354 355 356 359 361 358 360 362 365 366 369 367 366 366 367 366 367 367 366 363 360 359 361 360 358 358 359 360 361 362 362 361 360 358 359 359 359 359 359 360 361 361 361 360 360 359 358 358 359 359 360
349 350 348 350 351 352 353 353 353 356 356 356 360 360 361 360 362 362 360 364 358 360 364 356 354 354 355 361 358 354 349 349 351 354 355 358 361 362 363 360 358 358 359 363 365 367 367 367 367 368 366 366 365 364 361 359 359 356 358 355 359 357 360 360 361 360 361 360 360 360 361 360 359 360 361 361 361 361 360 359 359 358 358 359 360
353 351 351 353 354 354 353 355 354 359 356 352 359 362 363 361 362 361 362 361 360 364 361 355 353 353 355 362 362 359 352 350 353 358 363 362 365 365 361 360 357 355 360 359 365 367 366 367 367 365 365 364 364 364 364 363 363 357 356 357 354 357 358 360 358 361 359 359 360 362 362 361 361 361 361 361 362 362 360 359 359 359 359 359 360
357 355 355 356 353 353 354 358 356 359 358 353 360 359 360 361 362 361 360 361 365 360 354 355 355 352 355 361 364 358 361 360 362 364 364 365 364 363 359 359 358 360 365 362 361 369 370 369 366 367 366 365 364 363 364 363 362 358 355 352 356 354 360 359 360 359 358 360 361 362 364 362 362 361 361 361 361 362 362 361 359 359 359 359 360
357 360 360 356 352 356 359 363 360 362 361 354 356 357 358 358 360 359 360 361 362 359 353 354 355 358 362 364 366 366 371 368 367 369 369 366 364 362 359 361 361 367 366 365 364 368 365 367 365 366 366 364 361 360 362 362 362 361 356 354 355 355 356 359 360 361 358 359 361 360 357 360 361 362 362 362 362 361 362 362 361 360 360 361 360
360 360 362 360 356 359 363 366 364 363 364 358 360 358 360 360 360 359 361 360 355 355 354 354 353 356 362 366 367 369 368 367 369 369 367 366 363 364 363 361 365 369 370 369 367 367 363 366 358 360 361 361 360 360 358 358 359 360 357 361 356 356 357 357 357 359 360 360 362 362 361 361 360 362 362 362 362 362 361 362 362 362 362 361 361
362 363 362 363 361 361 366 365 366 365 364 361 362 362 363 360 358 357 357 359 356 354 351 356 353 357 363 364 369 368 368 367 370 367 363 365 361 361 364 365 367 369 367 366 372 366 365 363 366 362 358 361 360 360 358 355 358 357 358 359 357 355 358 358 358 358 360 362 361 361 361 360 360 361 361 362 362 362 361 361 361 362 362 362 361
362 364 366 365 366 365 365 363 367 365 365 363 364 363 362 361 358 359 359 363 355 357 355 360 360 365 369 369 371 372 371 373 373 371 365 363 361 361 362 368 368 368 366 368 369 367 367 364 364 362 358 358 359 356 357 357 358 357 358 358 358 358 357 358 357 360 361 361 361 362 362 361 360 360 361 361 361 362 362 362 361 362 362 361 361
362 363 364 365 365 365 363 362 364 364 364 364 365 365 364 362 363 360 360 364 361 358 362 364 364 370 370 368 369 370 372 372 373 372 367 363 362 362 363 367 370 368 364 363 365 366 365 362 363 364 362 356 356 354 356 356 356 357 358 357 357 357 357 359 358 356 359 360 360 361 362 362 362 358 359 361 363 363 363 363 362 362 362 362 362
362 363 365 365 365 365 364 365 366 366 365 364 366 365 365 365 364 363 364 364 368 366 366 366 367 366 367 367 370 371 371 372 372 370 369 365 365 365 369 368 367 367 365 363 363 365 365 364 361 363 362 357 355 355 355 356 354 352 354 355 356 356 358 358 359 358 357 358 359 361 362 361 362 361 359 360 359 363 364 364 364 363 364 363 363
360 362 366 367 366 366 366 365 365 365 363 364 364 363 363 364 363 363 364 366 365 364 364 365 364 365 367 368 367 367 369 371 369 368 365 364 366 367 366 366 366 365 365 365 363 364 362 358 357 358 357 358 356 357 357 356 355 354 354 356 357 356 359 358 359 359 358 359 359 359 363 362 363 363 363 361 359 359 362 366 365 364 363 364 363
361 363 364 365 365 363 365 364 365 366 365 364 363 360 360 360 359 362 360 359 359 361 362 362 364 365 364 365 366 367 368 369 369 368 366 366 366 365 365 362 362 363 362 362 362 360 356 353 351 352 353 357 359 359 358 356 354 353 354 355 357 357 354 357 359 360 360 361 360 360 358 360 361 363 364 363 362 359 359 360 364 362 359 361 365
362 362 362 362 363 362 361 360 362 365 363 364 364 362 361 359 360 359 358 359 358 360 358 357 359 362 362 362 365 366 367 365 365 367 365 364 364 366 368 366 365 363 362 362 363 361 358 356 355 356 355 356 357 359 357 356 354 352 355 355 356 358 357 356 358 359 361 361 360 359 359 359 360 360 363 363 364 363 361 360 360 362 364 365 365
360 358 358 361 362 363 361 361 363 362 360 362 362 366 362 360 358 357 357 358 355 355 357 358 357 358 359 361 361 362 363 363 364 365 365 365 366 365 367 366 364 362 362 365 364 363 361 358 356 355 358 356 355 355 358 356 351 348 348 347 349 353 353 355 357 358 360 361 361 360 361 360 360 360 361 361 363 365 364 363 363 360 360 362 366
360 358 358 359 360 362 362 363 362 363 366 360 360 357 360 361 360 359 360 356 355 357 357 358 357 356 357 358 359 359 360 364 364 365 366 365 365 365 365 365 363 361 361 361 362 361 359 357 357 354 355 358 357 359 359 357 350 352 351 347 341 338 343 355 355 353 354 361 360 359 359 359 360 362 360 359 359 363 364 364 363 363 361 360 360
358 359 358 357 357 358 360 361 360 361 362 359 359 361 362 360 361 360 358 356 353 356 356 357 355 355 355 357 360 361 360 362 364 364 364 364 363 364 364 364 363 363 361 358 358 358 360 358 356 355 355 351 351 356 357 359 355 351 344 344 345 341 339 344 345 350 358 358 358 357 358 356 360 362 362 359 358 359 360 362 362 364 365 364 361
357 355 354 354 355 355 357 359 359 359 360 359 359 360 358 356 356 356 355 353 354 355 355 354 353 353 355 357 359 362 362 362 364 364 363 363 364 362 364 363 361 361 361 358 357 356 360 359 357 357 357 354 352 354 358 359 354 354 349 343 341 338 337 347 344 348 356 356 358 357 358 358 359 360 360 358 363 360 358 359 362 363 365 366 367
355 355 355 355 355 354 355 357 359 361 359 361 361 362 356 352 352 349 349 349 350 352 352 352 353 353 356 360 361 361 362 364 365 365 365 364 362 363 364 362 360 359 360 360 358 357 359 356 357 355 355 358 356 352 352 358 355 354 356 354 350 340 340 345 344 339 354 358 357 356 358 358 359 359 362 360 362 357 358 359 359 361 364 365 365
354 355 354 353 354 354 356 357 358 361 360 356 360 356 352 354 353 352 352 351 350 353 358 358 356 358 358 360 361 364 363 361 361 361 365 364 364 364 363 363 362 363 363 361 355 351 350 352 354 352 350 356 354 351 350 352 354 357 354 353 353 352 351 346 342 346 342 350 351 352 356 360 360 360 357 358 361 356 359 360 361 361 361 363 363
355 354 352 353 355 355 357 357 358 359 360 359 356 358 355 355 355 354 353 352 353 354 356 356 359 359 360 358 360 359 357 361 360 364 365 364 364 362 363 362 363 359 355 351 348 347 349 350 353 353 352 354 352 348 347 348 348 349 351 351 353 353 354 354 354 348 345 342 344 354 354 354 359 355 360 360 361 361 358 361 360 361 362 362 364
355 352 352 353 355 357 358 357 358 355 356 354 357 357 357 356 351 353 352 354 355 355 356 356 357 360 358 359 356 355 355 361 361 363 364 364 362 362 359 361 357 354 356 350 351 348 347 349 352 352 352 351 349 348 347 347 347 348 349 351 350 349 350 352 353 353 346 342 344 347 350 355 352 357 358 361 361 362 362 361 362 361 361 362 363
354 355 353 353 355 356 357 357 357 354 355 354 353 353 356 359 359 357 355 354 354 354 356 357 358 361 359 357 356 352 356 355 358 356 360 362 362 361 361 357 354 351 351 349 348 349 349 350 349 348 351 350 348 346 344 343 343 345 347 349 350 349 348 347 349 349 349 349 342 341 343 346 344 346 351 355 358 361 361 361 362 359 358 361 361
354 353 352 352 353 355 356 357 359 361 355 353 354 354 358 357 357 357 357 354 353 354 355 358 360 358 354 355 354 353 353 353 356 359 360 357 357 363 353 352 351 352 348 346 348 344 344 345 346 348 349 347 344 345 344 346 345 344 341 342 341 342 343 343 346 348 345 344 344 343 342 344 342 345 349 352 357 360 360 361 362 360 359 360 359
Wind_Speed
10 12 11 10 7 9 9 10 11 11 11 12 12 12 12 12 13 13 14 13 13 13 13 13 13 13 12 10 10 10 9 9 9 9 9 8 9 9 9 9 9 9 8 8 8 8 6 4 6 6 5 5 5 5 6 5 6 3 4 5 5 6 7 8 9 13 20 16 11 8 10 8 11 12 11 9 8 9 9 8 7 5 7 5 8
13 12 11 11 8 6 1 11 11 11 11 11 12 12 12 12 12 12 13 13 13 13 13 12 12 13 13 11 10 9 8 8 8 9 8 8 6 7 8 8 8 8 7 7 12 6 6 4 4 5 6 4 4 4 4 5 5 6 3 5 5 6 7 8 9 14 20 13 8 10 12 8 11 11 11 10 8 9 9 8 7 6 6 10 6
13 12 12 12 8 4 2 11 11 11 11 11 11 11 11 11 11 11 12 12 12 12 12 12 12 13 12 12 11 10 9 8 7 6 7 9 9 7 7 7 8 8 8 8 8 4 2 2 4 1 3 3 2 4 4 4 5 6 4 5 5 6 6 7 9 15 17 12 8 11 12 10 11 11 11 10 10 10 9 9 11 11 7 12 11
14 11 11 11 8 5 5 11 11 11 11 10 10 10 10 10 10 11 11 11 12 12 12 12 12 12 12 12 12 11 10 10 9 8 7 8 10 9 8 5 5 7 6 7 7 3 3 2 2 1 2 1 2 2 2 2 4 4 4 5 4 5 5 6 8 16 13 10 9 10 5 6 9 10 11 11 9 9 9 11 12 11 13 12 11
14 12 12 12 11 8 6 10 10 10 10 10 10 10 10 10 10 10 10 11 11 11 11 11 11 10 11 10 12 11 12 11 10 10 9 8 9 9 9 6 5 6 7 6 5 5 3 6 3 2 4 5 3 3 1 0 2 4 3 3 2 3 4 5 12 11 10 9 10 8 4 6 6 7 8 9 8 8 10 11 10 12 14 13 11
13 12 12 11 11 10 6 9 10 10 10 10 10 10 9 9 9 10 10 10 11 10 11 10 10 10 11 10 10 11 11 10 10 10 9 10 9 10 9 6 4 2 6 6 6 7 5 4 5 6 5 6 5 3 3 2 2 3 2 1 0 1 2 7 15 5 6 6 11 6 7 6 6 6 8 8 8 8 10 12 12 12 14 14 11
13 11 11 11 10 11 7 8 9 10 10 10 9 9 9 10 10 10 10 10 10 10 10 10 10 10 8 9 9 8 10 9 10 11 7 7 10 10 8 9 7 5 5 5 6 7 7 9 6 4 5 7 7 5 5 4 5 4 3 1 1 1 3 11 15 11 10 5 3 5 7 7 5 5 9 8 10 10 9 9 11 13 13 13 13
11 10 11 10 10 11 9 9 9 9 10 10 9 9 9 9 9 10 10 10 9 9 10 9 9 9 8 8 8 8 7 8 8 8 12 9 10 9 11 10 8 6 4 5 6 6 7 7 7 7 8 7 7 7 7 6 5 5 6 2 3 2 4 10 15 12 10 5 4 4 6 8 7 6 10 10 9 10 11 10 11 12 13 13 13
11 11 10 11 11 13 10 9 8 9 9 10 9 9 9 9 9 9 9 9 9 9 9 9 9 8 7 7 7 7 6 6 9 8 10 10 10 9 9 9 8 7 8 5 6 8 7 6 6 8 9 7 8 8 8 7 6 6 7 5 5 5 5 7 10 10 6 4 5 6 7 7 7 6 9 10 10 10 11 11 11 12 13 14 14
11 10 10 9 12 13 11 10 9 9 10 9 9 10 9 9 9 9 8 9 9 9 9 8 8 8 7 6 8 7 9 8 8 6 11 10 8 9 8 9 10 7 6 4 4 6 7 8 8 8 7 7 7 8 8 8 8 8 5 7 6 3 4 4 11 7 4 5 4 7 8 9 6 5 9 10 9 10 10 9 7 10 10 13 13
11 10 9 10 14 13 12 11 10 10 9 9 10 10 9 9 9 9 8 8 8 8 8 8 7 7 7 6 8 6 6 6 6 6 5 6 8 8 9 8 11 9 9 6 7 9 8 8 8 7 7 7 8 8 8 9 9 7 6 9 6 6 5 6 9 4 5 7 6 6 9 11 7 6 9 10 10 9 8 7 9 10 13 14 17
11 10 9 10 14 14 12 11 10 9 7 10 10 10 9 9 9 9 8 8 8 8 8 8 8 7 6 6 6 6 6 6 6 6 5 6 4 4 6 8 7 9 12 14 14 11 6 4 6 5 5 5 6 6 7 9 10 8 10 10 9 7 8 7 5 5 4 6 6 6 8 8 7 8 12 10 10 10 10 11 11 12 13 15 17
11 10 10 11 11 13 12 11 10 10 9 9 9 9 9 9 9 8 8 8 8 8 8 8 7 7 7 6 6 8 6 6 6 6 5 4 4 4 3 4 4 4 4 3 4 5 3 2 2 3 4 5 5 6 8 9 9 8 8 11 10 8 8 7 5 4 5 4 5 6 6 6 7 12 12 12 11 11 11 11 11 11 13 14 16
11 10 10 11 10 13 12 11 10 10 9 9 9 8 8 8 8 8 8 8 8 7 8 7 7 7 7 7 6 7 6 7 6 5 5 5 4 4 3 3 3 4 5 5 6 6 6 3 1 3 4 4 5 6 8 8 9 10 10 9 8 8 7 6 4 4 5 5 6 9 9 6 7 14 12 12 12 11 10 10 11 12 12 13 15
12 12 10 10 11 10 12 10 10 10 9 9 8 8 8 8 8 8 8 8 8 7 7 7 6 6 6 6 6 6 6 6 5 5 5 4 3 3 3 4 4 4 3 6 6 6 7 3 1 4 3 5 5 6 6 7 8 9 9 9 7 9 9 7 4 4 6 10 6 7 7 4 13 14 13 12 12 11 11 10 11 11 11 13 14
11 11 11 9 10 10 9 10 9 10 10 9 8 8 8 8 8 8 8 8 8 7 7 6 6 6 6 5 5 5 5 5 4 4 4 3 3 2 3 3 3 3 6 7 6 5 6 3 3 1 2 3 5 5 5 6 8 8 8 10 12 9 12 6 5 5 5 7 6 7 4 4 13 13 12 12 12 12 11 10 10 11 12 12 13
10 10 10 9 10 9 9 8 9 9 10 9 9 8 8 8 8 7 7 7 7 7 7 6 6 6 5 5 5 4 4 4 3 3 3 2 1 2 2 3 3 4 6 8 6 5 7 4 2 1 1 2 3 5 5 5 6 4 6 9 11 12 12 10 4 6 7 7 6 7 7 6 13 13 12 12 12 12 12 11 11 11 11 12 12
10 9 8 9 8 8 8 8 8 8 8 9 9 8 8 7 8 7 7 7 7 6 6 5 5 5 5 4 3 4 4 3 3 3 2 2 2 2 2 3 2 3 8 7 3 1 5 3 3 1 0 2 3 3 3 5 6 8 8 9 10 10 11 10 7 8 5 7 6 7 7 8 13 12 12 12 12 12 12 12 11 12 12 11 13
9 9 8 8 7 7 7 7 8 7 8 7 7 8 8 8 7 7 6 6 6 6 6 5 4 5 4 3 3 2 2 2 2 2 2 2 3 1 3 2 4 3 4 9 7 4 3 2 4 1 2 2 3 4 3 5 4 6 8 8 10 9 11 10 4 6 5 7 7 7 10 13 12 12 12 13 13 13 13 13 12 12 11 11 12
7 7 8 7 6 7 7 6 7 7 7 6 6 7 10 9 7 7 7 6 6 5 5 4 4 3 3 1 2 2 5 4 3 2 3 1 3 4 4 3 4 4 3 2 3 7 8 8 7 5 4 3 4 4 4 4 4 5 8 10 12 13 8 7 6 8 6 7 7 7 12 15 13 12 13 13 13 13 13 13 12 12 12 12 13
5 7 7 6 7 6 7 6 7 8 7 6 6 6 8 9 7 9 5 5 5 3 4 4 4 5 4 4 3 2 3 3 4 3 4 3 3 2 3 3 2 4 4 4 3 3 2 2 5 8 8 6 4 5 5 4 5 5 7 8 11 8 5 7 9 7 8 7 6 6 16 12 13 13 13 14 13 13 13 12 12 12 11 12 12
7 7 7 7 7 6 7 5 6 8 7 5 4 4 5 5 5 6 5 6 6 6 5 3 4 4 4 2 1 2 2 2 2 1 2 2 6 2 0 1 1 2 3 2 2 2 2 1 3 5 6 6 8 3 4 6 6 6 7 10 7 6 9 9 6 8 8 6 7 9 15 13 12 13 14 14 13 13 13 12 12 12 11 11 12
7 7 7 8 6 6 6 6 7 6 7 5 4 4 4 4 4 4 4 3 5 4 3 3 2 2 2 1 1 2 2 1 2 4 4 3 2 1 1 2 1 1 3 2 3 2 3 3 2 5 3 3 1 2 5 5 4 6 9 9 5 6 5 7 8 8 5 2 2 13 13 13 12 14 14 14 13 12 11 12 12 11 11 12 11
8 7 7 7 7 6 6 6 6 6 5 5 4 5 5 4 3 4 4 4 4 3 3 2 2 1 1 0 1 2 1 1 3 4 6 4 5 9 6 6 7 6 5 5 6 8 5 6 4 8 6 2 3 3 2 7 7 5 6 6 7 7 9 7 6 7 7 8 5 7 11 13 13 13 14 14 13 12 12 11 12 11 11 11 11
7 6 6 7 8 7 6 6 6 5 6 4 4 4 5 4 4 4 3 3 3 3 2 3 2 2 1 2 1 0 0 1 1 1 2 1 2 2 3 3 2 3 8 4 4 3 7 7 6 5 4 5 5 2 3 3 1 4 3 1 3 4 6 6 7 7 6 9 8 13 11 13 14 13 14 12 14 13 12 12 12 12 12 10 11
6 6 6 6 7 7 6 6 6 5 5 4 4 3 2 4 4 3 3 3 3 3 3 3 3 2 2 1 1 2 3 2 2 1 1 2 3 2 2 2 2 3 3 4 3 3 3 2 2 1 2 3 2 6 5 2 1 1 2 3 2 4 5 6 6 5 7 5 9 16 14 13 14 15 14 13 14 14 13 13 13 12 12 10 10
6 6 6 5 6 7 6 6 6 5 5 4 3 3 4 3 3 3 3 3 3 2 3 3 2 1 2 2 3 2 2 2 2 2 2 3 3 3 2 3 3 3 2 3 3 3 4 4 2 1 1 2 1 2 3 0 1 2 3 3 3 3 4 6 6 6 7 6 8 15 13 13 14 14 14 14 15 14 15 14 14 13 13 10 10
5 6 6 6 7 8 7 7 6 6 5 5 4 3 3 3 2 2 3 0 1 3 2 2 1 3 3 1 2 2 2 2 2 3 3 4 3 3 3 3 3 2 1 3 3 3 3 3 3 2 2 1 1 2 1 3 2 2 1 3 3 3 4 4 6 8 7 7 7 11 13 12 13 12 12 13 13 15 15 15 13 13 13 13 13
7 7 6 6 8 7 8 8 7 7 5 5 5 4 3 3 3 3 3 2 3 2 1 1 3 2 2 3 3 4 3 3 3 4 3 3 4 4 3 3 4 3 2 3 3 3 3 3 3 3 2 1 0 2 1 1 1 1 3 0 2 3 4 5 6 6 6 7 7 10 15 16 15 14 13 12 13 13 14 14 14 12 13 15 14
7 7 7 6 6 8 8 9 7 7 5 5 4 4 3 3 3 2 2 2 3 2 2 3 3 3 3 3 3 4 5 4 4 3 4 4 4 4 5 4 4 4 2 4 2 3 3 3 3 3 2 2 2 2 2 1 4 3 6 3 3 5 4 4 5 7 7 7 7 9 17 16 15 15 14 12 13 12 12 12 13 14 13 15 15
6 7 6 5 5 6 8 8 8 6 6 5 4 4 3 3 3 3 3 3 2 3 4 4 3 3 2 1 3 4 5 5 5 4 3 4 4 4 5 4 5 4 3 4 2 2 3 3 3 3 2 2 1 2 2 3 1 2 2 1 2 7 4 4 6 6 7 6 6 7 13 18 16 15 15 15 14 13 14 13 14 14 14 16 17
5 6 5 5 6 8 7 7 7 7 6 6 5 4 4 4 4 3 3 3 2 3 4 3 3 3 2 2 3 4 4 5 5 5 5 5 5 5 6 5 4 4 3 4 4 1 2 2 2 2 0 2 2 2 2 2 3 2 2 2 3 6 6 4 4 5 6 7 7 7 8 12 17 16 16 16 15 15 15 16 15 15 16 17 17
6 6 6 7 7 7 5 6 6 7 7 7 5 5 4 4 4 4 3 3 4 4 4 3 3 2 3 3 3 3 3 4 4 5 6 6 6 5 7 5 4 3 4 5 4 2 2 1 0 1 3 4 3 4 3 3 4 4 4 3 5 6 6 3 5 5 6 6 7 7 8 11 12 17 17 17 17 16 17 17 18 18 19 19 18
6 6 7 7 6 3 4 4 6 6 7 6 4 4 4 3 3 3 3 3 3 3 3 4 3 3 3 2 2 2 3 4 4 5 5 6 8 5 5 5 2 1 2 3 3 2 1 2 3 5 2 3 4 4 5 3 5 5 7 5 6 5 6 7 5 5 5 6 6 7 7 8 9 11 12 18 18 18 18 18 18 19 19 20 19
6 5 6 6 6 5 4 4 6 8 8 7 6 5 4 4 4 3 2 3 2 3 3 3 4 4 3 1 1 3 4 4 4 3 3 4 6 5 4 3 2 3 1 4 2 1 3 2 2 2 4 4 5 5 5 5 5 4 5 5 6 8 5 5 4 5 6 5 5 6 7 7 8 9 11 10 16 20 19 19 18 18 19 19 19
9 6 5 5 6 6 6 6 7 8 8 7 6 6 5 4 3 2 2 2 3 3 3 2 3 3 2 3 4 5 5 3 3 2 3 4 5 4 3 3 3 3 2 2 2 2 3 3 2 3 5 5 3 5 5 4 5 5 5 5 5 5 5 5 6 3 5 5 6 6 6 7 8 8 9 10 11 14 21 20 19 20 20 21 20
10 10 7 6 7 8 8 8 8 8 8 7 6 6 5 4 4 3 2 2 3 3 2 2 3 2 3 4 4 5 5 3 2 2 3 4 5 5 3 4 3 3 3 3 2 2 3 3 2 3 5 4 5 6 4 4 5 5 5 6 6 6 6 6 6 6 8 6 6 6 7 8 8 9 9 9 9 10 19 22 21 21 21 21 20
10 10 11 10 9 8 8 7 7 7 6 6 6 6 5 3 3 3 2 1 0 1 1 2 2 3 3 3 3 3 3 3 3 2 3 4 5 5 5 5 5 4 4 4 3 3 3 3 4 4 3 4 5 5 4 4 5 5 5 6 6 6 6 6 6 5 5 7 5 7 7 7 8 8 9 9 9 9 10 18 22 22 22 21 22
8 11 11 10 9 8 7 7 7 7 7 6 6 5 4 4 3 3 3 2 1 1 3 3 2 3 3 2 2 3 3 3 3 3 4 5 5 5 5 4 4 4 3 4 4 3 4 4 5 5 4 4 4 4 4 4 4 4 5 6 6 7 6 6 6 6 6 6 7 8 7 7 7 8 8 9 9 9 10 9 13 13 16 24 22
10 10 11 10 10 9 7 7 8 8 7 7 6 6 6 6 6 5 4 3 3 3 3 4 2 3 3 2 3 4 4 3 3 4 5 5 5 5 4 4 4 4 4 5 5 3 3 3 4 4 4 4 4 2 2 4 4 5 5 6 6 7 9 8 7 7 6 6 6 6 8 7 8 9 9 8 8 9 10 9 10 12 13 19 24
11 12 13 12 11 10 10 11 10 9 8 6 6 6 6 5 5 5 5 5 4 4 3 3 4 3 4 5 4 5 4 3 4 5 5 5 5 5 3 3 3 4 5 5 4 4 3 3 3 4 4 3 2 1 1 3 4 4 4 6 6 7 7 8 8 7 7 6 6 7 7 7 8 9 8 8 9 9 9 9 10 10 10 9 16
12 12 13 13 11 12 12 11 9 9 10 7 4 4 4 5 5 5 6 5 4 4 4 3 4 4 4 4 4 4 5 4 5 5 5 5 5 4 3 3 2 4 4 4 4 5 4 4 2 3 2 2 1 1 2 2 3 4 3 4 4 4 7 9 8 6 7 6 6 7 7 8 8 8 8 8 9 9 9 9 9 10 10 10 10
12 12 12 12 12 11 11 10 9 8 7 7 6 4 1 3 6 6 7 4 3 3 3 3 3 4 4 4 5 5 6 5 5 5 5 5 5 4 3 2 3 3 2 2 4 5 3 2 2 2 1 1 1 1 2 3 2 2 4 4 4 5 5 5 5 7 10 6 6 7 7 8 9 8 7 8 8 9 9 9 10 10 10 10 10
8 8 10 11 9 10 10 9 8 8 7 9 9 8 7 6 4 5 2 2 2 3 3 3 4 5 5 4 6 6 6 6 5 5 4 5 5 4 3 2 3 2 1 2 3 2 3 2 2 1 2 1 3 1 2 3 3 3 3 2 2 3 2 4 5 7 6 7 7 7 7 7 8 8 7 7 8 9 9 10 11 10 10 10 10
9 10 11 10 8 11 10 9 9 9 8 8 11 10 9 6 5 3 2 2 2 3 3 4 4 4 4 4 6 6 6 6 5 6 5 5 4 3 3 3 3 2 1 2 2 1 1 2 1 1 1 3 1 0 1 2 2 2 3 3 2 1 2 2 3 2 4 5 7 8 7 8 7 7 7 8 8 7 8 10 10 10 11 10 10
9 9 9 10 9 9 10 9 8 7 9 10 11 9 9 10 7 5 4 4 5 5 5 5 4 3 4 4 5 5 6 6 5 5 6 4 3 4 3 3 4 2 3 2 1 2 3 2 1 1 2 0 3 1 3 3 2 2 4 3 2 1 1 0 2 2 2 3 2 6 6 7 7 7 7 8 8 8 10 9 9 9 9 10 10
7 7 8 9 9 9 9 9 8 7 7 9 10 9 10 7 8 7 7 7 6 6 5 3 3 2 3 5 5 2 4 6 3 5 5 4 3 4 3 4 4 4 3 2 2 3 1 1 0 1 2 1 2 3 3 3 2 2 2 2 3 5 4 4 3 1 4 4 5 6 4 6 7 7 8 9 8 9 10 9 9 9 9 9 10
7 8 8 8 9 9 8 8 6 6 5 5 9 8 8 9 7 8 8 8 6 4 2 2 3 3 4 5 5 1 4 4 4 5 4 4 4 4 5 5 5 4 4 3 2 2 1 1 1 1 2 2 2 4 4 3 2 0 1 2 2 3 5 6 6 6 5 4 4 5 6 8 7 8 8 8 9 9 10 10 10 10 9 9 9
5 6 6 5 6 6 6 7 6 6 5 6 6 6 7 10 10 8 8 6 5 5 3 3 3 3 5 3 4 4 4 4 3 4 5 5 5 6 7 6 5 2 2 2 2 1 2 2 1 2 2 3 3 2 4 3 4 1 2 2 3 3 3 3 4 5 5 4 5 5 5 4 7 7 7 8 8 8 9 9 8 8 8 9 10
5 6 4 4 4 4 5 6 6 8 8 8 8 9 10 8 8 7 7 5 4 3 3 2 2 1 3 3 3 5 3 0 4 4 7 4 6 7 6 4 3 2 4 0 2 2 2 2 2 3 4 4 3 4 4 4 5 3 3 2 3 3 4 4 4 5 6 7 7 4 8 7 5 4 6 7 10 9 9 9 8 7 7 7 8
5 6 4 3 3 4 7 6 6 4 10 8 9 10 6 6 6 5 5 4 5 4 3 2 1 3 4 3 2 1 4 5 6 6 6 9 8 6 4 4 3 2 3 2 3 4 4 4 4 2 3 4 5 5 5 4 3 4 6 4 5 6 4 5 4 5 6 6 6 7 5 4 7 6 9 10 7 8 8 8 7 6 7 8 9
Wind_Direction
149 139 133 130 145 147 138 137 136 134 128 125 121 120 115 114 115 115 118 121 123 127 130 135 136 129 131 136 141 139 143 146 146 152 158 151 155 151 149 145 144 139 131 130 120 83 69 109 124 102 95 79 82 75 65 55 48 58 121 136 135 113 107 112 109 103 94 102 115 130 121 111 105 115 122 127 124 113 108 103 94 93 103 50 9
154 143 136 134 136 134 94 139 137 133 129 127 124 120 119 116 116 117 118 119 122 124 128 131 133 133 141 146 143 141 141 144 149 151 149 156 148 154 151 148 135 120 115 101 86 107 112 95 57 50 48 99 83 74 61 57 49 37 109 124 115 115 115 115 115 106 100 113 136 129 103 116 121 123 127 132 134 120 118 107 91 116 110 105 70
145 143 139 135 134 133 161 145 138 132 131 128 128 125 124 123 120 120 119 120 121 124 126 127 131 136 142 146 148 149 154 153 151 148 150 148 153 156 145 137 138 117 97 84 98 109 121 95 111 69 39 82 88 68 59 42 44 32 46 109 111 105 121 127 122 107 113 120 154 112 117 120 120 125 132 138 144 138 128 114 114 116 118 114 105
141 141 140 126 129 123 162 144 139 134 132 131 130 129 126 126 125 122 121 121 122 123 125 126 128 134 142 146 151 156 156 158 160 159 154 144 149 151 135 134 124 121 111 104 120 148 219 245 121 191 239 289 345 4 37 46 66 47 107 93 64 127 133 142 124 102 119 133 136 110 135 121 126 133 142 151 151 136 123 116 117 117 119 115 107
139 139 135 141 145 132 155 143 138 136 133 130 130 128 128 126 125 121 120 120 121 124 123 124 125 126 130 151 154 155 159 161 162 160 155 153 150 142 121 148 186 145 132 135 155 175 206 225 200 225 261 260 278 306 309 177 87 99 47 36 21 62 128 135 85 92 127 142 120 119 130 126 122 131 141 145 137 132 122 115 116 122 120 119 119
139 137 141 145 143 137 158 148 140 139 137 134 132 129 128 124 121 119 119 120 119 121 122 123 123 126 135 135 143 152 150 153 154 155 157 154 150 141 140 136 159 183 139 167 195 202 221 235 220 225 239 252 255 246 239 202 149 155 152 197 228 23 31 78 76 88 129 145 126 127 134 130 129 139 144 135 136 131 126 129 132 132 124 124 113
136 137 143 145 142 135 159 152 145 142 138 134 130 128 127 123 122 120 119 118 118 119 120 121 124 121 128 128 132 139 137 149 152 146 159 136 138 137 147 167 161 190 157 192 209 218 225 226 215 224 230 233 223 233 221 210 180 189 188 221 225 249 48 113 128 171 167 169 164 133 136 138 130 136 144 150 146 141 133 133 132 127 125 123 121
139 140 142 141 134 134 154 149 146 143 137 132 129 128 127 127 123 123 122 121 121 120 120 121 121 126 126 125 131 131 140 137 128 140 120 141 133 135 155 145 139 136 182 187 200 212 216 215 215 220 220 218 221 230 222 208 200 188 194 183 207 203 120 132 143 165 190 176 164 161 139 142 144 140 158 152 153 146 139 134 128 127 127 124 123
140 139 138 135 131 130 142 145 144 142 137 134 133 133 134 127 123 123 124 122 121 121 121 121 121 121 125 126 123 108 108 124 135 140 124 140 133 149 145 144 140 160 168 202 219 223 216 218 224 218 220 224 227 224 221 213 215 204 194 177 206 167 107 136 134 161 188 182 175 146 136 135 147 149 150 156 156 148 139 133 134 129 132 130 125
136 136 136 135 133 127 138 143 143 143 140 139 133 132 131 128 125 123 124 124 122 121 120 119 119 118 120 126 101 146 136 154 125 129 134 142 148 156 150 139 143 173 177 198 240 239 215 219 227 227 222 222 214 217 217 212 221 208 199 188 197 164 141 121 140 197 170 183 177 138 139 143 148 151 150 159 154 148 144 146 139 140 134 131 122
137 137 135 131 123 129 137 143 142 142 142 137 136 132 133 130 127 126 125 123 119 115 112 111 111 114 119 120 133 124 118 109 108 116 104 113 127 135 146 146 143 156 159 184 189 237 213 202 222 227 221 223 225 221 221 213 218 198 196 225 181 188 170 153 159 164 178 180 173 142 134 155 155 147 161 158 153 146 137 118 136 135 144 138 130
141 138 135 125 123 132 138 139 139 132 137 136 134 134 134 129 127 126 126 122 119 114 113 113 115 114 106 106 107 102 91 87 84 78 80 95 95 115 111 133 148 160 175 177 177 197 181 193 216 232 246 246 226 217 218 217 217 200 195 218 207 191 183 171 187 171 168 185 180 132 145 166 154 158 164 158 154 151 146 147 141 143 147 140 134
140 140 132 132 134 132 137 137 137 138 143 137 136 134 131 129 127 127 126 124 123 120 119 119 114 108 108 106 102 99 97 100 108 109 111 105 104 101 96 113 120 117 91 97 88 66 73 13 266 228 223 236 242 236 226 222 217 204 193 210 202 201 193 188 196 160 192 197 181 163 147 169 162 147 166 162 158 149 145 147 145 148 150 145 139
140 138 138 137 133 132 134 137 142 140 142 135 136 133 133 132 132 131 129 126 122 124 121 118 115 117 117 116 114 111 118 115 107 97 94 94 95 88 84 76 77 70 52 56 65 85 92 50 259 250 248 243 236 237 231 226 218 206 199 204 202 194 188 217 237 205 176 191 193 167 175 164 149 153 167 165 162 147 148 150 150 153 157 151 143
144 140 140 138 140 137 134 141 145 142 142 141 138 137 136 138 136 134 129 127 126 123 121 119 121 117 115 109 104 105 102 96 96 98 103 88 85 79 75 66 70 88 90 67 58 53 74 86 259 236 245 247 236 239 231 226 221 206 201 189 226 197 194 207 205 197 192 194 180 167 155 202 128 162 168 165 160 148 152 153 155 164 166 158 149
142 140 138 142 140 138 150 142 147 146 146 141 143 141 141 140 138 134 131 130 131 126 126 121 120 117 112 109 109 108 111 109 105 112 105 112 92 91 76 82 79 69 71 65 45 44 52 46 80 99 245 233 234 223 226 206 224 216 202 203 193 196 208 194 189 189 226 175 184 144 101 175 152 164 170 164 157 151 155 160 162 167 166 160 150
144 143 141 139 144 151 149 159 145 153 150 146 147 145 146 141 139 135 132 132 132 129 123 129 121 126 122 117 111 101 100 99 106 99 110 110 110 67 60 54 38 51 59 71 42 52 59 38 332 345 291 234 224 228 216 207 196 217 222 205 194 192 196 190 203 206 205 174 169 165 133 175 162 171 169 167 163 157 160 165 170 169 170 160 156
144 145 138 144 147 148 149 155 151 174 155 155 148 148 147 144 136 135 133 135 130 131 129 126 130 117 114 107 107 118 114 118 121 127 116 81 69 58 42 32 15 29 85 81 77 65 80 30 317 210 84 220 207 210 217 221 192 191 198 202 202 197 201 172 234 215 199 172 183 160 165 160 167 171 169 166 163 164 165 166 173 169 171 165 160
149 152 143 144 147 150 148 153 167 168 163 163 156 152 147 143 142 137 139 138 134 135 131 122 115 109 104 105 122 129 98 114 113 109 68 59 54 238 70 11 353 9 83 135 156 128 115 81 33 168 118 93 183 202 193 189 203 198 191 185 206 202 200 192 231 222 183 166 192 196 154 155 167 171 168 166 169 167 170 168 173 175 170 175 167
147 154 148 150 152 166 152 160 164 174 166 162 150 155 149 146 148 141 153 158 132 121 120 122 115 114 90 94 117 195 166 129 104 139 87 103 92 1 37 0 2 352 5 33 98 133 156 156 149 141 119 141 172 168 175 158 182 192 196 182 190 190 195 212 220 204 190 182 181 190 122 159 170 176 165 168 173 171 172 170 173 175 180 176 174
152 167 161 156 160 178 161 160 170 171 158 156 153 147 139 157 168 155 147 136 118 126 133 150 169 153 182 152 201 196 118 117 159 96 146 108 86 102 21 57 30 352 354 7 30 27 54 138 139 137 136 156 167 161 170 178 171 171 173 203 183 182 204 191 205 198 207 184 182 169 143 153 173 178 168 164 172 174 174 173 176 179 185 186 177
168 166 172 172 170 180 162 168 172 171 162 164 160 152 139 176 172 153 165 155 158 166 179 156 146 140 161 176 154 132 118 112 78 162 120 139 142 70 59 45 20 350 350 348 12 346 311 325 132 144 134 162 150 151 163 167 172 158 159 163 179 189 184 199 206 204 201 141 198 132 150 160 178 183 175 171 174 176 174 178 180 180 186 192 183
171 171 174 183 178 169 174 173 159 178 171 171 164 154 159 150 152 151 145 168 151 172 156 155 125 128 104 131 172 108 78 70 85 12 349 343 279 83 236 210 210 275 278 291 276 273 275 276 187 149 143 118 124 203 154 166 157 169 161 172 163 187 224 200 197 207 178 130 290 133 161 173 178 187 184 177 180 177 183 185 182 186 186 194 199
175 177 170 182 174 176 173 174 154 172 183 172 180 169 161 167 171 159 161 163 169 161 150 146 142 136 110 12 169 106 193 136 105 193 236 233 172 189 194 228 227 219 224 246 221 222 228 253 203 171 189 124 167 257 255 167 171 175 188 179 186 167 188 187 182 208 166 165 162 173 174 182 184 189 188 183 185 186 185 195 194 186 194 194 201
178 175 169 178 175 176 171 167 165 171 177 174 182 183 155 180 171 167 171 171 173 166 176 163 163 159 190 205 226 145 14 215 160 222 273 324 288 296 219 223 214 221 182 250 254 195 198 178 159 243 204 173 143 230 251 57 193 162 137 148 144 161 180 181 194 187 220 143 169 194 188 188 194 190 189 190 189 191 193 197 201 196 202 195 202
164 184 176 171 178 178 173 163 169 174 167 188 179 142 171 185 174 167 178 178 182 185 182 173 172 185 216 197 276 193 204 195 191 235 252 248 274 285 275 261 268 270 228 259 261 251 265 281 271 262 92 210 194 151 214 300 140 182 119 136 171 163 172 180 184 200 192 172 157 184 187 197 197 194 192 193 196 198 195 200 204 200 207 200 210
170 191 173 176 182 177 174 168 170 168 174 177 158 168 176 189 188 178 197 182 188 195 196 182 172 161 215 225 251 201 216 225 198 212 254 269 277 278 294 297 284 280 294 285 288 274 262 282 297 240 304 325 164 264 102 266 55 290 140 159 165 185 178 164 175 200 198 172 154 170 182 200 202 199 197 199 200 201 199 198 205 205 211 209 213
185 185 186 181 181 184 174 187 166 176 173 172 176 175 176 179 181 163 218 149 243 203 211 200 139 183 224 289 282 274 269 257 255 243 236 253 266 289 294 285 301 296 318 297 292 283 272 264 252 239 255 241 257 294 342 140 348 349 336 166 166 199 184 175 168 191 186 197 168 175 185 196 209 208 206 203 203 203 203 198 202 211 210 215 215
194 189 192 193 182 188 178 187 171 182 171 181 179 176 169 197 178 195 204 155 224 238 204 260 230 218 190 233 248 275 272 273 275 280 302 301 298 288 288 303 294 312 309 292 282 271 253 239 236 241 231 253 99 320 350 160 88 207 246 85 247 201 194 192 176 184 192 198 182 179 189 192 200 208 206 208 208 206 208 208 202 207 219 216 216
193 203 194 198 192 184 190 186 188 177 182 181 177 168 172 178 191 202 207 183 226 217 261 236 225 231 219 209 261 286 290 287 277 294 295 298 294 288 285 279 299 295 330 318 295 280 242 213 227 251 247 227 215 150 236 240 101 20 333 12 268 233 205 201 193 179 187 197 197 171 188 195 197 201 205 210 211 206 205 200 204 208 217 224 221
195 205 208 197 194 193 189 192 192 179 183 194 170 160 176 185 189 196 195 211 194 213 228 237 255 236 221 179 254 259 279 275 277 283 280 274 274 286 287 304 296 319 349 297 314 287 259 217 214 229 216 237 259 182 213 234 129 107 274 269 276 297 223 202 209 194 183 193 195 179 185 198 196 198 204 208 208 209 206 203 207 208 211 223 222
219 223 216 209 202 201 194 181 198 178 199 200 168 180 182 188 193 210 209 195 191 234 231 240 235 251 270 218 235 264 276 292 301 301 303 308 297 292 291 289 303 330 324 318 331 303 251 253 220 228 353 241 224 198 233 230 197 190 178 224 257 275 248 202 216 205 198 187 187 196 181 192 198 204 205 209 212 211 210 208 208 212 214 216 222
216 213 223 223 214 191 191 175 204 172 197 208 186 195 188 191 196 208 206 190 219 228 246 250 252 237 222 220 237 245 257 282 307 309 297 290 293 299 294 312 319 344 330 327 315 273 254 235 26 271 213 221 207 207 218 227 225 183 179 194 242 238 249 279 206 210 215 195 192 197 188 190 197 201 208 210 214 216 215 213 210 211 215 215 217
217 201 208 227 219 189 170 180 196 194 194 207 199 196 192 193 206 203 202 220 234 241 246 247 246 244 237 213 254 267 292 304 303 311 334 333 302 295 294 293 333 294 283 305 277 273 133 185 130 253 249 249 232 218 225 226 238 187 209 182 204 235 227 208 208 199 213 212 200 199 200 190 193 196 201 210 214 216 218 217 216 216 218 217 217
230 217 206 214 216 185 172 186 187 201 192 206 194 203 196 209 199 218 208 224 238 250 268 270 257 257 267 197 262 299 293 297 301 304 302 282 280 293 297 298 301 299 15 268 263 248 300 264 130 246 245 238 251 236 242 214 219 224 214 191 207 222 211 214 232 216 205 210 217 207 203 199 197 194 199 200 211 216 217 218 220 221 223 222 222
218 222 220 211 210 191 194 201 191 199 201 201 200 202 202 219 233 189 233 194 245 254 258 276 292 298 302 306 314 306 292 287 290 286 287 300 296 295 296 291 287 283 288 267 263 238 234 264 239 244 248 249 243 282 246 247 240 237 233 210 219 220 208 220 206 198 261 217 211 212 210 205 202 199 200 200 201 207 213 215 217 220 223 223 222
209 213 208 203 209 207 202 208 201 199 205 203 204 200 201 211 224 227 212 203 240 238 250 275 264 284 304 301 310 307 296 292 295 310 319 313 300 284 268 283 287 288 300 280 268 286 279 275 232 254 289 275 264 254 269 259 261 242 239 230 225 221 225 205 221 204 201 220 216 218 210 211 212 207 205 208 202 201 202 209 213 215 219 223 223
211 212 210 207 212 213 206 205 205 198 197 200 201 206 199 202 210 214 196 207 280 302 277 272 281 294 300 312 330 305 299 312 322 334 325 305 293 293 296 294 304 320 305 297 300 297 283 289 279 276 286 288 274 260 247 250 249 250 232 235 222 224 228 218 207 213 220 214 218 228 220 216 212 214 214 212 213 208 196 204 208 211 215 219 222
191 209 209 205 209 207 201 199 206 203 204 202 205 207 199 204 209 195 187 182 217 260 274 271 275 285 290 333 312 291 286 288 302 294 302 297 286 283 285 295 301 306 302 296 278 275 290 301 300 299 282 263 266 271 267 265 261 237 233 221 224 218 247 234 211 202 213 219 193 221 226 220 219 218 220 221 217 212 213 194 202 210 211 213 217
195 208 205 201 204 209 201 205 211 199 194 193 186 191 198 197 188 177 190 195 217 220 230 262 284 293 308 294 266 272 279 284 280 275 284 281 280 281 289 305 307 300 300 294 290 286 303 296 280 270 267 253 231 246 249 253 251 256 246 237 230 223 222 231 221 212 212 209 215 213 228 218 217 214 216 220 224 223 213 203 199 214 215 207 212
191 202 213 209 205 206 212 215 211 209 202 190 181 187 193 189 193 199 205 198 211 209 222 245 256 261 270 271 274 284 281 279 270 270 270 266 267 272 282 285 288 294 286 281 294 289 248 218 222 237 242 249 242 221 249 238 242 230 227 240 228 220 224 231 229 219 214 210 213 217 219 222 218 216 212 217 217 223 228 220 215 214 214 215 204
201 209 222 219 210 210 220 223 215 207 218 192 182 192 192 188 190 202 213 193 196 219 237 245 255 260 262 276 287 289 289 274 267 266 255 261 262 264 272 282 289 274 282 302 303 269 262 253 235 253 230 279 260 189 177 217 230 254 235 212 229 233 224 220 220 249 234 213 214 213 224 224 224 221 221 214 218 223 220 224 228 222 219 215 214
217 215 223 224 219 216 220 222 219 217 193 167 166 162 151 145 187 201 211 178 186 218 238 242 243 260 268 269 271 273 270 262 262 252 262 266 263 270 270 252 259 259 262 293 286 279 284 277 229 244 211 205 268 211 199 250 274 260 261 261 192 211 219 213 215 216 230 217 211 219 220 219 220 229 224 223 216 216 224 223 221 227 226 223 220
217 206 220 225 225 224 224 215 213 210 196 173 166 171 153 160 200 211 214 150 163 206 234 258 273 267 266 259 254 257 256 263 252 245 247 260 263 263 265 274 249 244 257 284 274 265 278 246 241 291 298 228 215 187 213 206 249 276 242 265 273 261 181 191 191 198 208 213 215 220 226 230 221 221 235 237 234 226 222 223 226 220 224 228 227
210 218 227 227 225 224 219 217 212 212 207 182 176 168 140 148 157 165 167 222 239 237 247 255 245 254 262 253 260 256 255 252 248 248 249 249 265 262 248 254 255 234 254 239 253 301 265 262 48 49 21 329 325 252 155 220 248 281 297 308 290 263 351 106 155 292 226 206 220 219 218 227 227 216 218 226 233 248 240 231 232 228 222 225 227
202 209 228 233 229 228 226 216 211 201 201 191 177 159 153 173 170 175 199 220 228 225 228 237 243 241 259 267 262 254 255 261 255 257 255 242 232 239 231 246 235 211 218 232 256 230 231 265 82 35 72 71 321 206 181 182 227 196 232 257 270 189 292 338 241 199 202 257 282 238 213 232 222 221 225 229 224 234 227 235 236 231 230 230 231
197 207 228 238 232 231 221 210 209 196 197 195 181 176 170 165 165 177 199 218 220 230 235 233 245 254 277 275 275 320 274 270 295 277 248 230 220 229 226 234 225 221 208 226 220 229 208 35 275 325 330 354 290 298 314 112 165 198 209 236 232 248 256 280 272 280 221 206 221 229 214 226 219 226 227 229 215 229 234 225 230 238 231 232 235
188 186 210 217 218 222 213 208 193 174 180 164 188 177 172 166 167 188 206 216 220 237 240 239 247 263 257 270 273 126 284 275 251 223 227 215 213 218 220 217 222 207 202 212 251 308 14 119 331 333 341 280 278 308 323 312 285 271 231 223 209 234 241 229 240 265 280 253 225 220 202 229 224 233 232 237 222 219 231 225 226 225 230 230 230
171 175 203 219 223 209 200 203 183 158 179 180 171 184 197 181 177 188 196 221 230 236 230 227 240 239 249 266 303 275 244 223 203 247 231 204 199 218 214 207 201 206 222 239 269 321 315 15 319 283 261 261 274 321 294 297 294 269 240 237 245 254 259 229 236 246 265 263 255 227 250 251 261 254 234 227 231 228 224 225 227 234 242 232 230
152 152 182 213 199 177 175 194 187 158 177 162 179 206 194 169 171 184 181 186 192 225 239 253 243 200 252 219 242 276 299 224 204 232 235 204 216 217 205 199 193 196 236 304 274 202 216 213 229 297 338 311 301 273 297 323 311 313 271 261 266 268 246 249 240 238 243 265 282 226 198 219 239 272 276 259 233 224 225 226 208 217 238 244 252
140 139 147 179 177 181 165 189 165 168 136 159 189 173 164 159 150 161 184 185 183 208 208 192 178 212 226 233 236 337 217 223 204 188 213 209 204 194 203 199 240 194 300 262 253 307 329 330 325 2 254 308 317 325 291 274 294 288 291 272 267 259 257 261 256 245 256 256 262 273 266 209 241 230 212 228 235 230 228 230 216 209 228 241 239